Simultaneous Nadir Overpasses (SNOs) Predictions

Prediction of SNOs between LANDSAT-8 and METOP-B Satellite Orbit:

Table of predicted SNOs for the next 14.0 days since TLE Epoch: 9/11/2020
Index Date (LANDSAT-8) Time (LANDSAT-8) Lat,Lon (LANDSAT-8) SZA (LANDSAT-8 ) Date (METOP-B) Time (METOP-B) Lat,Lon (METOP-B) SZA (METOP-B ) Distance(km) Time Diff (sec)
1 09/12/2020 06:48:20 81.17, 118.74 79.45 09/12/2020 06:47:17 81.17, 118.74 79.42 0.19 63
2 09/12/2020 07:37:46 -81.19, -73.28 100.50 09/12/2020 07:37:56 -81.19, -73.28 100.49 0.07 10
3 09/15/2020 02:22:36 81.18,-174.76 80.56 09/15/2020 02:21:37 81.18,-174.69 80.54 1.21 59
4 09/15/2020 03:12:02 -81.20, -6.75 99.38 09/15/2020 03:12:16 -81.20, -6.67 99.37 1.44 14
5 09/17/2020 21:56:52 81.18,-108.28 81.67 09/17/2020 21:55:57 81.18,-108.13 81.67 2.67 55
6 09/17/2020 22:46:18 -81.20, 59.75 98.26 09/17/2020 22:46:36 -81.21, 59.94 98.23 3.25 18
7 09/20/2020 17:31:07 81.18, -41.83 82.78 09/20/2020 17:30:17 81.18, -41.95 82.75 2.14 50
8 09/20/2020 18:20:33 -81.20, 126.22 97.15 09/20/2020 18:20:56 -81.20, 126.16 97.15 1.20 23
9 09/23/2020 13:05:23 81.18, 24.60 83.90 09/23/2020 13:04:37 81.18, 24.60 83.88 0.17 46
